"read_dt","SO2 (ppb)","flags","PMT voltage (V)","lamp voltage (V)","lamp intensity (Hz)","internal temp (C)","react chamber temp (C)","sample flow (l/min)","pres (mmHg)","SO2 bkg (ppb)","SO2 coefficient"
2014-08-22 00:00:00,1856E-3,5C000000,-0724,0828,12301,027.1,045.4,0.479,736.9,01.18,0.508
2014-08-22 00:01:00,1805E-3,5C000000,-0724,0827,12039,027.1,045.5,0.479,736.9,01.18,0.508
2014-08-22 00:02:00,1633E-3,5C000000,-0724,0827,12256,027.1,045.5,0.479,736.9,01.18,0.508
2014-08-22 00:03:00,1733E-3,5C000000,-0724,0827,12112,027.1,045.4,0.479,736.9,01.18,0.508
2014-08-22 00:04:00,1662E-3,5C000000,-0724,0828,12245,027.1,045.5,0.480,736.9,01.18,0.508
2014-08-22 00:05:00,1721E-3,5C000000,-0724,0827,12058,027.1,045.5,0.479,736.9,01.18,0.508
2014-08-22 00:06:00,1858E-3,5C000000,-0724,0827,12062,027.1,045.5,0.479,737.0,01.18,0.508
2014-08-22 00:07:00,1642E-3,5C000000,-0724,0827,12260,027.1,045.5,0.479,737.0,01.18,0.508
2014-08-22 00:08:00,1766E-3,5C000000,-0724,0826,12348,027.1,045.5,0.479,737.0,01.18,0.508
2014-08-22 00:09:00,1897E-3,5C000000,-0724,0827,12304,027.1,045.5,0.479,737.0,01.18,0.508
2014-08-22 00:10:00,1849E-3,5C000000,-0724,0827,12054,027.1,045.5,0.479,737.0,01.18,0.508
2014-08-22 00:11:00,1835E-3,5C000000,-0724,0827,12074,027.1,045.5,0.479,737.0,01.18,0.508
2014-08-22 00:12:00,1700E-3,5C000000,-0724,0828,12206,027.1,045.5,0.479,737.0,01.18,0.508
2014-08-22 00:13:00,1794E-3,5C000000,-0724,0827,12218,027.1,045.5,0.479,737.0,01.18,0.508
2014-08-22 00:14:00,1795E-3,5C000000,-0724,0829,12319,027.1,045.5,0.479,737.0,01.18,0.508
2014-08-22 00:15:00,1863E-3,5C000000,-0724,0827,11916,027.1,045.5,0.479,737.0,01.18,0.508
2014-08-22 00:16:00,1868E-3,5C000000,-0724,0827,12307,027.1,045.5,0.479,737.0,01.18,0.508
2014-08-22 00:17:00,2025E-3,5C000000,-0724,0828,12135,027.1,045.5,0.479,737.0,01.18,0.508
2014-08-22 00:18:00,1897E-3,5C000000,-0724,0828,12169,027.1,045.5,0.479,737.0,01.18,0.508
2014-08-22 00:19:00,1987E-3,5C000000,-0724,0828,12266,027.1,045.4,0.479,737.0,01.18,0.508
2014-08-22 00:20:00,1939E-3,5C000000,-0724,0827,12235,027.1,045.5,0.479,737.0,01.18,0.508
2014-08-22 00:21:00,2037E-3,5C000000,-0724,0827,12216,027.1,045.5,0.479,736.9,01.18,0.508
2014-08-22 00:22:00,1973E-3,5C000000,-0724,0828,12241,027.1,045.5,0.479,736.9,01.18,0.508
2014-08-22 00:23:00,1926E-3,5C000000,-0724,0827,11923,027.1,045.5,0.479,737.0,01.18,0.508
2014-08-22 00:24:00,2103E-3,5C000000,-0724,0827,12270,027.1,045.5,0.479,737.0,01.18,0.508
2014-08-22 00:25:00,2232E-3,5C000000,-0724,0828,12221,027.1,045.4,0.479,737.0,01.18,0.508
2014-08-22 00:26:00,2399E-3,5C000000,-0724,0828,12180,027.1,045.5,0.479,737.0,01.18,0.508
2014-08-22 00:27:00,2141E-3,5C000000,-0724,0827,12322,027.1,045.5,0.479,737.0,01.18,0.508
2014-08-22 00:28:00,2069E-3,5C000000,-0724,0827,12273,027.1,045.5,0.479,737.0,01.18,0.508
2014-08-22 00:29:00,1923E-3,5C000000,-0724,0827,12045,027.1,045.5,0.479,737.0,01.18,0.508
2014-08-22 00:30:00,1912E-3,5C000000,-0724,0827,12260,027.1,045.5,0.479,737.0,01.18,0.508
2014-08-22 00:31:00,1950E-3,5C000000,-0724,0827,12186,027.1,045.5,0.479,737.0,01.18,0.508
2014-08-22 00:32:00,1764E-3,5C000000,-0724,0827,12307,027.1,045.5,0.479,737.0,01.18,0.508
2014-08-22 00:33:00,1839E-3,5C000000,-0724,0827,12065,027.1,045.5,0.479,737.0,01.18,0.508
2014-08-22 00:34:00,1857E-3,5C000000,-0724,0828,12213,027.1,045.5,0.479,737.0,01.18,0.508
2014-08-22 00:35:00,1946E-3,5C000000,-0724,0827,12321,027.1,045.5,0.479,737.0,01.18,0.508
2014-08-22 00:36:00,1951E-3,5C000000,-0724,0827,12172,027.1,045.5,0.479,737.0,01.18,0.508
2014-08-22 00:37:00,1908E-3,5C000000,-0724,0827,12327,027.1,045.5,0.479,737.0,01.18,0.508
2014-08-22 00:38:00,2059E-3,5C000000,-0724,0827,12296,027.1,045.5,0.479,737.0,01.18,0.508
2014-08-22 00:39:00,1949E-3,5C000000,-0724,0828,12093,027.1,045.5,0.479,737.0,01.18,0.508
2014-08-22 00:40:00,1875E-3,5C000000,-0724,0826,12311,027.1,045.5,0.479,737.0,01.18,0.508
2014-08-22 00:41:00,1681E-3,5C000000,-0724,0828,12255,027.1,045.5,0.479,737.0,01.18,0.508
2014-08-22 00:42:00,1959E-3,5C000000,-0724,0826,12154,027.1,045.5,0.479,737.0,01.18,0.508
2014-08-22 00:43:00,1948E-3,5C000000,-0724,0827,12054,027.1,045.5,0.479,737.0,01.18,0.508
2014-08-22 00:44:00,1826E-3,5C000000,-0724,0827,12338,027.1,045.5,0.479,737.0,01.18,0.508
2014-08-22 00:45:00,1891E-3,5C000000,-0724,0828,12272,027.1,045.5,0.479,737.0,01.18,0.508
2014-08-22 00:46:00,1946E-3,5C000000,-0724,0827,12099,027.1,045.5,0.479,737.0,01.18,0.508
2014-08-22 00:47:00,1884E-3,5C000000,-0724,0829,12152,027.1,045.5,0.479,737.0,01.18,0.508
2014-08-22 00:48:00,1877E-3,5C000000,-0724,0827,12177,027.1,045.5,0.479,737.0,01.18,0.508
2014-08-22 00:49:00,1892E-3,5C000000,-0724,0828,12211,027.1,045.5,0.479,737.0,01.18,0.508
2014-08-22 00:50:00,1933E-3,5C000000,-0724,0828,12176,027.1,045.5,0.479,737.0,01.18,0.508
2014-08-22 00:51:00,1907E-3,5C000000,-0724,0826,12041,027.1,045.5,0.479,737.0,01.18,0.508
2014-08-22 00:52:00,2023E-3,5C000000,-0724,0828,12219,027.1,045.5,0.479,737.0,01.18,0.508
2014-08-22 00:53:00,1857E-3,5C000000,-0724,0827,12278,027.1,045.5,0.479,737.0,01.18,0.508
2014-08-22 00:54:00,1799E-3,5C000000,-0724,0827,12078,027.1,045.5,0.479,737.0,01.18,0.508
2014-08-22 00:55:00,1918E-3,5C000000,-0724,0827,12132,027.1,045.5,0.479,737.0,01.18,0.508
2014-08-22 00:56:00,1849E-3,5C000000,-0724,0827,12186,027.1,045.5,0.479,737.0,01.18,0.508
2014-08-22 00:57:00,1920E-3,5C000000,-0724,0828,12316,027.1,045.5,0.479,737.0,01.18,0.508
2014-08-22 00:58:00,1899E-3,5C000000,-0724,0828,12257,027.1,045.5,0.479,737.0,01.18,0.508
2014-08-22 00:59:00,1843E-3,5C000000,-0724,0828,12193,027.1,045.5,0.479,737.1,01.18,0.508
2014-08-22 01:00:00,1967E-3,5C000000,-0724,0828,12294,027.1,045.5,0.479,737.1,01.18,0.508
2014-08-22 01:01:00,1830E-3,5C000000,-0724,0826,12181,027.1,045.5,0.479,737.0,01.18,0.508
2014-08-22 01:02:00,1874E-3,5C000000,-0724,0828,12273,027.1,045.5,0.479,737.0,01.18,0.508
2014-08-22 01:03:00,2023E-3,5C000000,-0724,0827,12201,027.1,045.5,0.479,737.0,01.18,0.508
2014-08-22 01:04:00,1819E-3,5C000000,-0724,0827,12267,027.1,045.5,0.479,737.1,01.18,0.508
2014-08-22 01:05:00,1837E-3,5C000000,-0724,0827,12259,027.1,045.4,0.479,737.1,01.18,0.508
2014-08-22 01:06:00,1888E-3,5C000000,-0724,0827,12059,027.1,045.5,0.479,737.1,01.18,0.508
2014-08-22 01:07:00,1824E-3,5C000000,-0724,0828,12279,027.1,045.5,0.479,737.1,01.18,0.508
2014-08-22 01:08:00,1830E-3,5C000000,-0724,0828,12034,027.1,045.5,0.479,737.1,01.18,0.508
2014-08-22 01:09:00,1851E-3,5C000000,-0724,0828,12215,027.1,045.5,0.479,737.1,01.18,0.508
2014-08-22 01:10:00,1865E-3,5C000000,-0724,0828,12221,027.1,045.5,0.479,737.1,01.18,0.508
2014-08-22 01:11:00,1791E-3,5C000000,-0724,0828,12200,027.1,045.5,0.479,737.1,01.18,0.508
2014-08-22 01:12:00,1698E-3,5C000000,-0724,0827,12324,027.1,045.5,0.479,737.1,01.18,0.508
2014-08-22 01:13:00,1954E-3,5C000000,-0724,0827,12217,027.1,045.5,0.479,737.1,01.18,0.508
2014-08-22 01:14:00,1793E-3,5C000000,-0724,0827,12199,027.1,045.5,0.479,737.1,01.18,0.508
2014-08-22 01:15:00,1803E-3,5C000000,-0724,0828,12425,027.1,045.5,0.479,737.1,01.18,0.508
2014-08-22 01:16:00,1822E-3,5C000000,-0724,0827,12220,027.1,045.5,0.479,737.1,01.18,0.508
2014-08-22 01:17:00,1793E-3,5C000000,-0724,0828,12332,027.1,045.5,0.479,737.1,01.18,0.508
2014-08-22 01:18:00,1860E-3,5C000000,-0724,0827,12139,027.1,045.5,0.479,737.1,01.18,0.508
2014-08-22 01:19:00,1825E-3,5C000000,-0724,0829,12137,027.1,045.5,0.479,737.1,01.18,0.508
2014-08-22 01:20:00,1714E-3,5C000000,-0724,0827,12247,027.1,045.5,0.480,737.1,01.18,0.508
2014-08-22 01:21:00,1873E-3,5C000000,-0724,0828,12147,027.1,045.5,0.479,737.1,01.18,0.508
2014-08-22 01:22:00,1864E-3,5C000000,-0724,0827,12316,027.1,045.5,0.479,737.1,01.18,0.508
2014-08-22 01:23:00,1894E-3,5C000000,-0724,0828,12307,027.1,045.5,0.479,737.1,01.18,0.508
2014-08-22 01:24:00,1736E-3,5C000000,-0724,0827,12043,027.1,045.5,0.479,737.1,01.18,0.508
2014-08-22 01:25:00,1860E-3,5C000000,-0724,0828,12118,027.1,045.5,0.480,737.1,01.18,0.508
2014-08-22 01:26:00,1829E-3,5C000000,-0724,0829,12076,027.1,045.5,0.479,737.1,01.18,0.508
2014-08-22 01:27:00,1798E-3,5C000000,-0724,0827,12291,027.1,045.5,0.479,737.1,01.18,0.508
2014-08-22 01:28:00,1964E-3,5C000000,-0724,0827,12253,027.1,045.5,0.479,737.1,01.18,0.508
2014-08-22 01:29:00,1794E-3,5C000000,-0724,0827,12189,027.1,045.5,0.479,737.1,01.18,0.508
2014-08-22 01:30:00,1977E-3,5C000000,-0724,0827,12169,027.1,045.5,0.479,737.1,01.18,0.508
2014-08-22 01:31:00,1732E-3,5C000000,-0724,0827,12067,027.1,045.5,0.479,737.1,01.18,0.508
2014-08-22 01:32:00,1850E-3,5C000000,-0724,0828,12417,027.1,045.5,0.479,737.1,01.18,0.508
2014-08-22 01:33:00,1728E-3,5C000000,-0724,0827,12386,027.1,045.5,0.479,737.2,01.18,0.508
2014-08-22 01:34:00,1748E-3,5C000000,-0724,0827,12236,027.1,045.4,0.479,737.2,01.18,0.508
2014-08-22 01:35:00,1851E-3,5C000000,-0724,0827,12324,027.2,045.5,0.479,737.2,01.18,0.508
2014-08-22 01:36:00,1809E-3,5C000000,-0724,0827,12114,027.1,045.5,0.479,737.2,01.18,0.508
2014-08-22 01:37:00,1796E-3,5C000000,-0724,0827,11834,027.1,045.5,0.479,737.2,01.18,0.508
2014-08-22 01:38:00,1898E-3,5C000000,-0724,0827,12194,027.1,045.5,0.479,737.2,01.18,0.508
2014-08-22 01:39:00,1886E-3,5C000000,-0724,0827,12144,027.1,045.5,0.479,737.2,01.18,0.508
2014-08-22 01:40:00,1832E-3,5C000000,-0724,0827,12301,027.1,045.5,0.479,737.2,01.18,0.508
2014-08-22 01:41:00,1910E-3,5C000000,-0724,0827,12128,027.1,045.5,0.479,737.2,01.18,0.508
2014-08-22 01:42:00,1776E-3,5C000000,-0724,0828,12244,027.1,045.5,0.479,737.2,01.18,0.508
2014-08-22 01:43:00,1851E-3,5C000000,-0724,0827,12162,027.1,045.4,0.479,737.2,01.18,0.508
2014-08-22 01:44:00,1821E-3,5C000000,-0724,0828,12306,027.1,045.5,0.479,737.2,01.18,0.508
2014-08-22 01:45:00,1796E-3,5C000000,-0724,0826,11975,027.1,045.5,0.479,737.2,01.18,0.508
2014-08-22 01:46:00,1834E-3,5C000000,-0724,0826,12176,027.1,045.5,0.479,737.2,01.18,0.508
2014-08-22 01:47:00,1667E-3,5C000000,-0724,0828,12281,027.1,045.5,0.479,737.2,01.18,0.508
2014-08-22 01:48:00,1758E-3,5C000000,-0724,0828,12180,027.1,045.5,0.479,737.2,01.18,0.508
2014-08-22 01:49:00,1850E-3,5C000000,-0724,0828,12221,027.1,045.5,0.479,737.2,01.18,0.508
2014-08-22 01:50:00,1782E-3,5C000000,-0724,0827,12136,027.1,045.5,0.479,737.2,01.18,0.508
2014-08-22 01:51:00,1911E-3,5C000000,-0724,0828,12183,027.1,045.5,0.480,737.2,01.18,0.508
2014-08-22 01:52:00,1934E-3,5C000000,-0724,0827,12404,027.1,045.5,0.479,737.2,01.18,0.508
2014-08-22 01:53:00,1739E-3,5C000000,-0724,0829,12280,027.1,045.5,0.479,737.2,01.18,0.508
2014-08-22 01:54:00,1825E-3,5C000000,-0724,0827,12040,027.1,045.5,0.479,737.2,01.18,0.508
2014-08-22 01:55:00,1729E-3,5C000000,-0724,0827,12240,027.1,045.5,0.479,737.2,01.18,0.508
2014-08-22 01:56:00,1702E-3,5C000000,-0724,0827,12296,027.1,045.5,0.479,737.2,01.18,0.508
2014-08-22 01:57:00,1773E-3,5C000000,-0724,0828,12153,027.1,045.5,0.479,737.2,01.18,0.508
2014-08-22 01:58:00,1779E-3,5C000000,-0724,0827,12139,027.1,045.5,0.479,737.2,01.18,0.508
2014-08-22 01:59:00,1809E-3,5C000000,-0724,0827,12246,027.1,045.5,0.479,737.2,01.18,0.508
2014-08-22 02:00:00,1783E-3,5C000000,-0724,0826,12036,027.1,045.5,0.479,737.2,01.18,0.508
2014-08-22 02:01:00,1781E-3,5C000000,-0724,0827,12247,027.1,045.5,0.479,737.2,01.18,0.508
2014-08-22 02:02:00,1745E-3,5C000000,-0724,0826,12196,027.1,045.5,0.479,737.3,01.18,0.508
2014-08-22 02:03:00,1731E-3,5C000000,-0724,0826,12145,027.1,045.5,0.479,737.3,01.18,0.508
2014-08-22 02:04:00,1771E-3,5C000000,-0724,0827,12351,027.1,045.5,0.479,737.3,01.18,0.508
2014-08-22 02:05:00,1810E-3,5C000000,-0724,0827,12041,027.1,045.5,0.479,737.3,01.18,0.508
2014-08-22 02:06:00,1789E-3,5C000000,-0724,0828,12302,027.1,045.5,0.479,737.3,01.18,0.508
2014-08-22 02:07:00,1899E-3,5C000000,-0724,0828,12312,027.1,045.5,0.479,737.3,01.18,0.508
2014-08-22 02:08:00,1786E-3,5C000000,-0724,0828,12208,027.1,045.5,0.480,737.3,01.18,0.508
2014-08-22 02:09:00,1758E-3,5C000000,-0724,0827,12167,027.1,045.5,0.479,737.3,01.18,0.508
2014-08-22 02:10:00,1859E-3,5C000000,-0724,0826,12125,027.1,045.5,0.479,737.3,01.18,0.508
2014-08-22 02:11:00,1872E-3,5C000000,-0724,0828,12225,027.1,045.5,0.479,737.3,01.18,0.508
2014-08-22 02:12:00,1678E-3,5C000000,-0724,0827,12369,027.1,045.5,0.479,737.3,01.18,0.508
2014-08-22 02:13:00,1678E-3,5C000000,-0724,0827,12270,027.1,045.5,0.479,737.3,01.18,0.508
2014-08-22 02:14:00,1858E-3,5C000000,-0724,0827,12232,027.2,045.5,0.479,737.3,01.18,0.508
2014-08-22 02:15:00,1783E-3,5C000000,-0724,0827,12108,027.1,045.5,0.479,737.3,01.18,0.508
2014-08-22 02:16:00,1853E-3,5C000000,-0724,0827,12250,027.1,045.5,0.479,737.4,01.18,0.508
2014-08-22 02:17:00,1688E-3,5C000000,-0724,0827,11957,027.1,045.5,0.479,737.3,01.18,0.508
2014-08-22 02:18:00,1834E-3,5C000000,-0724,0827,12185,027.1,045.5,0.479,737.3,01.18,0.508
2014-08-22 02:19:00,1838E-3,5C000000,-0724,0828,12126,027.1,045.5,0.479,737.3,01.18,0.508
2014-08-22 02:20:00,1787E-3,5C000000,-0724,0827,12170,027.2,045.5,0.479,737.3,01.18,0.508
2014-08-22 02:21:00,1679E-3,5C000000,-0724,0828,12341,027.1,045.5,0.480,737.4,01.18,0.508
2014-08-22 02:22:00,1880E-3,5C000000,-0724,0828,12152,027.1,045.5,0.479,737.3,01.18,0.508
2014-08-22 02:23:00,1872E-3,5C000000,-0724,0827,12257,027.1,045.5,0.479,737.4,01.18,0.508
2014-08-22 02:24:00,1812E-3,5C000000,-0724,0827,12293,027.2,045.5,0.479,737.4,01.18,0.508
2014-08-22 02:25:00,1762E-3,5C000000,-0724,0828,12300,027.2,045.5,0.479,737.4,01.18,0.508
2014-08-22 02:26:00,1822E-3,5C000000,-0724,0827,12287,027.2,045.5,0.479,737.4,01.18,0.508
2014-08-22 02:27:00,1781E-3,5C000000,-0724,0827,11951,027.2,045.5,0.479,737.4,01.18,0.508
2014-08-22 02:28:00,1767E-3,5C000000,-0724,0828,12269,027.2,045.4,0.479,737.4,01.18,0.508
2014-08-22 02:29:00,1888E-3,5C000000,-0724,0827,12296,027.2,045.5,0.479,737.4,01.18,0.508
2014-08-22 02:30:00,1882E-3,5C000000,-0724,0827,12227,027.2,045.5,0.479,737.4,01.18,0.508
2014-08-22 02:31:00,1887E-3,5C000000,-0724,0829,12232,027.1,045.5,0.479,737.4,01.18,0.508
2014-08-22 02:32:00,1861E-3,5C000000,-0724,0828,12152,027.2,045.5,0.479,737.4,01.18,0.508
2014-08-22 02:33:00,1785E-3,5C000000,-0724,0828,12203,027.2,045.5,0.479,737.4,01.18,0.508
2014-08-22 02:34:00,1853E-3,5C000000,-0724,0827,12288,027.2,045.5,0.479,737.4,01.18,0.508
2014-08-22 02:35:00,1799E-3,5C000000,-0724,0828,12247,027.2,045.5,0.479,737.4,01.18,0.508
2014-08-22 02:36:00,1910E-3,5C000000,-0724,0827,12251,027.2,045.5,0.479,737.4,01.18,0.508
2014-08-22 02:37:00,1770E-3,5C000000,-0724,0827,12300,027.2,045.5,0.479,737.4,01.18,0.508
2014-08-22 02:38:00,1793E-3,5C000000,-0724,0829,12192,027.2,045.5,0.479,737.4,01.18,0.508
2014-08-22 02:39:00,1964E-3,5C000000,-0724,0828,12292,027.2,045.5,0.479,737.5,01.18,0.508
2014-08-22 02:40:00,1790E-3,5C000000,-0724,0827,12125,027.2,045.5,0.479,737.5,01.18,0.508
2014-08-22 02:41:00,1803E-3,5C000000,-0724,0828,12173,027.2,045.5,0.479,737.5,01.18,0.508
2014-08-22 02:42:00,1771E-3,5C000000,-0724,0827,12224,027.2,045.5,0.479,737.5,01.18,0.508
2014-08-22 02:43:00,1707E-3,5C000000,-0724,0827,12054,027.2,045.5,0.479,737.5,01.18,0.508
2014-08-22 02:44:00,1769E-3,5C000000,-0724,0828,12154,027.2,045.5,0.479,737.5,01.18,0.508
2014-08-22 02:45:00,1873E-3,5C000000,-0724,0827,12317,027.2,045.5,0.480,737.5,01.18,0.508
2014-08-22 02:46:00,1783E-3,5C000000,-0724,0827,12163,027.2,045.5,0.479,737.5,01.18,0.508
2014-08-22 02:47:00,1791E-3,5C000000,-0724,0827,12231,027.2,045.5,0.479,737.5,01.18,0.508
2014-08-22 02:48:00,1749E-3,5C000000,-0724,0828,12172,027.2,045.5,0.479,737.5,01.18,0.508
2014-08-22 02:49:00,1719E-3,5C000000,-0724,0828,12012,027.2,045.5,0.479,737.5,01.18,0.508
2014-08-22 02:50:00,1744E-3,5C000000,-0724,0828,12184,027.2,045.5,0.479,737.5,01.18,0.508
2014-08-22 02:51:00,1688E-3,5C000000,-0724,0828,12312,027.2,045.5,0.479,737.5,01.18,0.508
2014-08-22 02:52:00,1676E-3,5C000000,-0724,0829,12265,027.2,045.5,0.479,737.5,01.18,0.508
2014-08-22 02:53:00,1789E-3,5C000000,-0724,0828,12195,027.2,045.5,0.479,737.5,01.18,0.508
2014-08-22 02:54:00,1740E-3,5C000000,-0724,0827,11985,027.2,045.5,0.479,737.5,01.18,0.508
2014-08-22 02:55:00,1799E-3,5C000000,-0724,0828,12032,027.2,045.5,0.479,737.5,01.18,0.508
2014-08-22 02:56:00,1755E-3,5C000000,-0724,0827,12331,027.2,045.4,0.479,737.5,01.18,0.508
2014-08-22 02:57:00,1821E-3,5C000000,-0724,0827,12253,027.2,045.5,0.479,737.5,01.18,0.508
2014-08-22 02:58:00,1916E-3,5C000000,-0724,0828,12287,027.2,045.5,0.479,737.5,01.18,0.508
2014-08-22 02:59:00,1728E-3,5C000000,-0724,0828,12143,027.2,045.5,0.479,737.5,01.18,0.508
2014-08-22 03:00:00,1592E-3,5C000000,-0724,0829,12134,027.2,045.5,0.479,737.5,01.18,0.508
2014-08-22 03:01:00,1864E-3,5C000000,-0724,0828,12175,027.2,045.5,0.479,737.5,01.18,0.508
2014-08-22 03:02:00,1884E-3,5C000000,-0724,0828,12080,027.2,045.5,0.479,737.5,01.18,0.508
2014-08-22 03:03:00,1798E-3,5C000000,-0724,0828,12353,027.2,045.5,0.479,737.5,01.18,0.508
2014-08-22 03:04:00,1860E-3,5C000000,-0724,0827,12325,027.2,045.5,0.480,737.5,01.18,0.508
2014-08-22 03:05:00,1662E-3,5C000000,-0724,0828,12046,027.2,045.5,0.479,737.5,01.18,0.508
2014-08-22 03:06:00,1781E-3,5C000000,-0724,0827,12173,027.2,045.4,0.479,737.5,01.18,0.508
2014-08-22 03:07:00,1969E-3,5C000000,-0724,0827,12061,027.2,045.5,0.479,737.5,01.18,0.508
2014-08-22 03:08:00,1748E-3,5C000000,-0724,0828,11938,027.2,045.5,0.480,737.5,01.18,0.508
2014-08-22 03:09:00,1891E-3,5C000000,-0724,0828,12190,027.2,045.5,0.479,737.5,01.18,0.508
2014-08-22 03:10:00,1891E-3,5C000000,-0724,0828,12083,027.2,045.5,0.479,737.5,01.18,0.508
2014-08-22 03:11:00,1862E-3,5C000000,-0724,0829,12191,027.2,045.5,0.479,737.6,01.18,0.508
2014-08-22 03:12:00,1678E-3,5C000000,-0724,0827,12135,027.2,045.5,0.480,737.6,01.18,0.508
2014-08-22 03:13:00,1796E-3,5C000000,-0724,0827,12229,027.2,045.5,0.479,737.6,01.18,0.508
2014-08-22 03:14:00,1783E-3,5C000000,-0724,0827,12204,027.2,045.5,0.479,737.5,01.18,0.508
2014-08-22 03:15:00,1809E-3,5C000000,-0724,0828,12298,027.2,045.5,0.479,737.5,01.18,0.508
2014-08-22 03:16:00,1861E-3,5C000000,-0724,0827,12220,027.2,045.4,0.479,737.5,01.18,0.508
2014-08-22 03:17:00,1878E-3,5C000000,-0724,0827,12185,027.2,045.4,0.479,737.5,01.18,0.508
2014-08-22 03:18:00,1796E-3,5C000000,-0724,0827,12267,027.2,045.5,0.479,737.6,01.18,0.508
2014-08-22 03:19:00,1653E-3,5C000000,-0724,0827,12223,027.2,045.5,0.479,737.6,01.18,0.508
2014-08-22 03:20:00,1840E-3,5C000000,-0724,0828,12271,027.2,045.5,0.479,737.6,01.18,0.508
2014-08-22 03:21:00,1861E-3,5C000000,-0724,0828,12287,027.2,045.5,0.479,737.6,01.18,0.508
2014-08-22 03:22:00,1790E-3,5C000000,-0724,0828,12124,027.2,045.5,0.479,737.6,01.18,0.508
2014-08-22 03:23:00,1943E-3,5C000000,-0724,0827,12240,027.2,045.5,0.479,737.6,01.18,0.508
2014-08-22 03:24:00,1781E-3,5C000000,-0724,0827,12039,027.2,045.5,0.479,737.6,01.18,0.508
2014-08-22 03:25:00,1803E-3,5C000000,-0724,0828,12116,027.2,045.5,0.479,737.6,01.18,0.508
2014-08-22 03:26:00,1823E-3,5C000000,-0724,0828,11994,027.2,045.5,0.479,737.6,01.18,0.508
2014-08-22 03:27:00,1832E-3,5C000000,-0724,0828,12272,027.2,045.5,0.479,737.6,01.18,0.508
2014-08-22 03:28:00,1968E-3,5C000000,-0724,0827,12136,027.2,045.5,0.479,737.6,01.18,0.508
2014-08-22 03:29:00,1826E-3,5C000000,-0724,0828,12350,027.2,045.5,0.479,737.6,01.18,0.508
2014-08-22 03:30:00,1669E-3,5C000000,-0724,0828,12324,027.2,045.5,0.479,737.6,01.18,0.508
2014-08-22 03:31:00,1809E-3,5C000000,-0724,0828,12215,027.2,045.5,0.480,737.6,01.18,0.508
2014-08-22 03:32:00,1759E-3,5C000000,-0724,0827,12197,027.2,045.5,0.479,737.6,01.18,0.508
2014-08-22 03:33:00,1866E-3,5C000000,-0724,0827,12147,027.2,045.5,0.479,737.6,01.18,0.508
2014-08-22 03:34:00,1851E-3,5C000000,-0724,0827,12189,027.2,045.5,0.479,737.6,01.18,0.508
2014-08-22 03:35:00,1914E-3,5C000000,-0724,0827,12310,027.2,045.5,0.479,737.6,01.18,0.508
2014-08-22 03:36:00,1813E-3,5C000000,-0724,0828,12248,027.2,045.5,0.479,737.6,01.18,0.508
2014-08-22 03:37:00,1748E-3,5C000000,-0724,0826,12158,027.2,045.5,0.479,737.7,01.18,0.508
2014-08-22 03:38:00,1907E-3,5C000000,-0724,0827,12189,027.2,045.5,0.479,737.7,01.18,0.508
2014-08-22 03:39:00,1787E-3,5C000000,-0724,0828,12354,027.2,045.5,0.479,737.7,01.18,0.508
2014-08-22 03:40:00,1863E-3,5C000000,-0724,0828,12157,027.2,045.5,0.479,737.6,01.18,0.508
2014-08-22 03:41:00,1985E-3,5C000000,-0724,0828,12236,027.2,045.5,0.479,737.6,01.18,0.508
2014-08-22 03:42:00,1726E-3,5C000000,-0724,0828,12296,027.2,045.5,0.480,737.6,01.18,0.508
2014-08-22 03:43:00,1800E-3,5C000000,-0724,0827,12159,027.2,045.5,0.479,737.7,01.18,0.508
2014-08-22 03:44:00,1701E-3,5C000000,-0724,0828,12255,027.2,045.5,0.479,737.7,01.18,0.508
2014-08-22 03:45:00,1697E-3,5C000000,-0724,0828,12296,027.2,045.5,0.479,737.8,01.18,0.508
2014-08-22 03:46:00,1747E-3,5C000000,-0724,0828,12248,027.2,045.5,0.479,737.8,01.18,0.508
2014-08-22 03:47:00,1842E-3,5C000000,-0724,0827,12354,027.2,045.5,0.479,737.8,01.18,0.508
2014-08-22 03:48:00,1804E-3,5C000000,-0724,0828,12175,027.2,045.5,0.479,737.8,01.18,0.508
2014-08-22 03:49:00,1687E-3,5C000000,-0724,0828,12292,027.2,045.5,0.479,737.8,01.18,0.508
2014-08-22 03:50:00,1721E-3,5C000000,-0724,0827,12088,027.2,045.5,0.479,737.8,01.18,0.508
2014-08-22 03:51:00,1934E-3,5C000000,-0724,0827,12205,027.2,045.5,0.479,737.8,01.18,0.508
2014-08-22 03:52:00,1906E-3,5C000000,-0724,0828,12228,027.2,045.5,0.479,737.8,01.18,0.508
2014-08-22 03:53:00,1838E-3,5C000000,-0724,0828,12290,027.2,045.5,0.479,737.8,01.18,0.508
2014-08-22 03:54:00,1878E-3,5C000000,-0724,0828,12247,027.2,045.5,0.479,737.8,01.18,0.508
2014-08-22 03:55:00,1724E-3,5C000000,-0724,0828,12391,027.3,045.5,0.479,737.8,01.18,0.508
2014-08-22 03:56:00,1667E-3,5C000000,-0724,0828,12262,027.3,045.5,0.479,737.8,01.18,0.508
2014-08-22 03:57:00,1816E-3,5C000000,-0724,0828,12223,027.2,045.5,0.479,737.8,01.18,0.508
2014-08-22 03:58:00,1818E-3,5C000000,-0724,0828,12152,027.2,045.5,0.479,737.8,01.18,0.508
2014-08-22 03:59:00,1851E-3,5C000000,-0724,0827,12026,027.2,045.5,0.479,737.8,01.18,0.508
2014-08-22 04:00:00,1822E-3,5C000000,-0724,0828,12236,027.2,045.5,0.479,737.8,01.18,0.508
2014-08-22 04:01:00,1739E-3,5C000000,-0724,0826,12126,027.2,045.5,0.479,737.8,01.18,0.508
2014-08-22 04:02:00,1838E-3,5C000000,-0724,0827,12274,027.2,045.5,0.480,737.8,01.18,0.508
2014-08-22 04:03:00,1839E-3,5C000000,-0724,0828,12291,027.2,045.5,0.479,737.8,01.18,0.508
2014-08-22 04:04:00,1695E-3,5C000000,-0724,0827,12251,027.2,045.5,0.479,737.8,01.18,0.508
2014-08-22 04:05:00,1804E-3,5C000000,-0724,0828,12003,027.2,045.5,0.479,737.8,01.18,0.508
2014-08-22 04:06:00,1761E-3,5C000000,-0724,0827,12276,027.2,045.5,0.479,737.8,01.18,0.508
2014-08-22 04:07:00,1729E-3,5C000000,-0724,0828,12113,027.2,045.5,0.479,737.8,01.18,0.508
2014-08-22 04:08:00,1604E-3,5C000000,-0724,0828,12179,027.2,045.5,0.479,737.8,01.18,0.508
2014-08-22 04:09:00,1602E-3,5C000000,-0724,0828,12208,027.2,045.5,0.479,737.9,01.18,0.508
2014-08-22 04:10:00,1884E-3,5C000000,-0724,0828,12298,027.2,045.5,0.479,737.9,01.18,0.508
2014-08-22 04:11:00,1770E-3,5C000000,-0724,0828,12013,027.3,045.5,0.479,737.9,01.18,0.508
2014-08-22 04:12:00,1644E-3,5C000000,-0724,0827,12272,027.3,045.5,0.479,737.9,01.18,0.508
2014-08-22 04:13:00,1674E-3,5C000000,-0724,0828,12305,027.3,045.5,0.479,737.9,01.18,0.508
2014-08-22 04:14:00,1808E-3,5C000000,-0724,0828,12156,027.3,045.4,0.479,737.9,01.18,0.508
2014-08-22 04:15:00,1797E-3,5C000000,-0724,0827,12231,027.3,045.5,0.480,737.9,01.18,0.508
2014-08-22 04:16:00,1879E-3,5C000000,-0724,0828,12186,027.3,045.5,0.479,737.9,01.18,0.508
2014-08-22 04:17:00,1863E-3,5C000000,-0724,0827,12120,027.3,045.5,0.479,737.9,01.18,0.508
2014-08-22 04:18:00,1918E-3,5C000000,-0724,0828,12310,027.3,045.5,0.479,737.9,01.18,0.508
2014-08-22 04:19:00,1883E-3,5C000000,-0724,0828,12327,027.3,045.4,0.479,737.9,01.18,0.508
2014-08-22 04:20:00,1831E-3,5C000000,-0724,0827,12309,027.3,045.5,0.479,737.9,01.18,0.508